sat.trackr.live / text

‹ back to catalog

STARLINK-35739

NORAD 67053 · 2025-294Z

PAYLOAD ACTIVE UNKNOWN

§ Identity

Operator
Country
US
Launch date
2025-12-11
Launch site
AFETR
Launch vehicle
Mass (kg)
RCS (m²)

Purposes: comms

External: N2YO · Heavens-Above · Gunter

§ Orbital elements

Epoch: 2026-05-24T21:42:25.364736Z

Period
94.27 min
Inclination
43.0044°
Eccentricity
0.0002007
Mean motion
15.27592966 rev/d
Perigee alt
481.6 km
Apogee alt
484.4 km
Semi-major
6,861.1 km
B*
7.4178e-4
RAAN
327.7941°
Arg perigee
266.7280°
Mean anomaly
93.3342°
Rev number
2,645

§ Raw data

STARLINK-357391 67053U 25294Z   26144.90446024  .00020214  00000+0  74178-3 0  99972 67053  43.0044 327.7941 0002007 266.7280  93.3342 15.27592966 26454

JSON: /api/v1/satellites/67053 · /tle

For live sub-satellite position, see the globe view (requires WebGL).

§ Visibility from observer

Set your observer location to see the next 7 days of passes ≥ 10°. The values pass through the URL so the page stays shareable.

No JS? Fill the form by hand. The geolocation button needs JavaScript.